Regional Weather Roundup
Issued by NWS Kansas City/Pleasant Hill, MO

Home | Current Version | Previous Version | Graphics & Text | Print | Product List | Glossary Off
Versions: 1 2 3 4 5 6 7 8 9 10 11 12 13 14 15 16 17 18 19 20 21 22 23 24 25 26 27

000
ASUS43 KEAX 160310
RWREAX

WEATHER ROUNDUP FOR EASTERN KANSAS AND NORTHWEST MISSOURI
NATIONAL WEATHER SERVICE KANSAS CITY/PLEASANT HILL MO
1000 PM CDT TUE AUG 15 2017

KSZ040-057-103>105-MOZ028-029-037-043-160400-
...KANSAS CITY METROPOLITAN AREA...

CITY           SKY/WX    TMP DP  RH WIND       PRES   REMARKS
K.C. INTL      PTCLDY    77  71  82 SE7       29.88R
K.C. DOWNTOWN  PTCLDY    83  72  69 SE6       29.87R
LEES SUMMIT    CLOUDY    77  72  84 E5        29.89R
OLATHE - IXD   PTCLDY    77  72  84 E5        29.89R
OLATHE - OJC   PTCLDY    77  72  84 SE6       29.89R
LAWRENCE       PTCLDY    76  73  91 E6        29.87R

$$

MOZ001>008-011>017-020>025-030>033-038>040-044>046-053-054-160400-
...NORTHERN AND CENTRAL MISSOURI...

CITY           SKY/WX    TMP DP  RH WIND       PRES   REMARKS
ST. JOSEPH     MOCLDY    79  72  79 SE7       29.87R
MOSBY          CLEAR     77  70  78 SE3       29.87R
WARRENSBURG    CLOUDY    77  70  78 E6        29.88R
WHITEMAN AFB   MOCLDY    75  75 100 SE5       29.87R
CLINTON        CLOUDY    77  72  83 E5        29.88S
SEDALIA        CLOUDY    76  74  93 SE6       29.90R
WARSAW         NOT AVBL
CHILLICOTHE      N/A     73  71  93 CALM      29.89R
KIRKSVILLE     CLEAR     72  67  84 E6        29.91R

$$

MOZ041-047>049-056>058-063>065-088>090-097-160400-
...EASTERN AND SOUTHERN MISSOURI...

CITY           SKY/WX    TMP DP  RH WIND       PRES   REMARKS
ST. LOUIS INTL PTCLDY    82  70  66 S9        29.93R
SPIRIT OF STL  MOCLDY    81  72  74 SE5       29.91R
COLUMBIA       CLOUDY    77  70  79 SE5       29.91R
JEFFERSON CITY CLOUDY    76  75  97 SE3       29.89R
ROLLA          CLOUDY    77  72  84 SE8       29.94R
OSAGE BEACH    CLOUDY    77  71  82 E3        29.91R
SPRINGFIELD    CLOUDY    79  73  82 SE7       29.90R
BRANSON        CLOUDY    75  73  94 SE3       29.92S
JOPLIN         LGT RAIN  79  77  94 SE6       29.87R
WEST PLAINS    CLOUDY    77  72  84 SE10      29.96R

$$

IAZ060-094-KSZ022-034>040-054-083-096-NEZ052-066-093-160400-
...KANSAS...SOUTHEAST NEBRASKA AND IOWA...

CITY           SKY/WX    TMP DP  RH WIND       PRES   REMARKS
TOPEKA         CLOUDY    78  74  87 SE6       29.86R
MANHATTAN      CLOUDY    77  72  84 CALM      29.83R
EMPORIA        CLOUDY    77  72  84 SE5       29.85R
CHANUTE        CLOUDY    79  74  84 SE6       29.86R
WICHITA        CLOUDY    78  74  87 SE5       29.82R
OMAHA          CLOUDY    72  65  78 NE10      29.89R
LINCOLN        CLOUDY    72  65  78 NE16      29.87R
FALLS CITY     CLOUDY    75  71  87 E6        29.86R
LAMONI         PTCLDY    74  70  87 NE5       29.90R
DES MOINES     MOCLDY    71  69  93 NE8       29.91R

$$





USA.gov is the U.S. government's official web portal to all federal, state and local government web resources and services.